FW1340 Weather Reports


Display with metric or nautical units.
time (UTC)temp
F
wind
direction
speed
MPH
gust
MPH
rain 1hr
in
rain 24hr
in
rain mn
in
humidity
%
barometer
mb
20260905163026 65 331 0.0 0.0 0.00 0.00 0.00 72 1014.9
20260905161533 65 257 0.0 0.0 0.00 0.00 0.00 74 1014.8
20260905160028 64 259 0.0 0.0 0.00 0.00 0.00 75 1014.9
20260905154525 62 256 0.0 0.0 0.00 0.00 0.00 78 1014.9
20260905153011 60 360 0.0 0.0 0.00 0.00 0.00 82 1014.9
20260905151505 58 69 0.0 0.0 0.00 0.00 0.00 85 1014.9
20260905150002 55 92 0.0 0.0 0.00 0.00 0.00 90 1014.9
20260905144559 52 80 0.0 0.0 0.00 0.00 0.00 92 1014.8
20260905143054 51 76 0.0 0.0 0.00 0.00 0.00 91 1014.7
20260905141550 50 76 0.0 0.0 0.00 0.00 0.00 91 1014.6
20260905140051 50 76 0.0 0.0 0.00 0.00 0.00 90 1014.5
20260905134551 50 38 0.0 0.0 0.00 0.00 0.00 91 1014.4
20260905133046 50 80 0.0 0.0 0.00 0.00 0.00 91 1014.3
20260905131546 50 117 0.0 0.0 0.00 0.00 0.00 91 1014.3
20260905130044 50 117 0.0 0.0 0.00 0.00 0.00 90 1014.2
20260905124548 50 117 0.0 0.0 0.00 0.00 0.00 90 1014.1
20260905123041 50 117 0.0 0.0 0.00 0.00 0.00 90 1014.2
20260905121540 50 117 0.0 0.0 0.00 0.00 0.00 89 1014.2
20260905120039 50 89 0.0 0.0 0.00 0.00 0.00 89 1014.2
20260905114536 50 74 0.0 0.0 0.00 0.00 0.00 89 1014.2
20260905113036 51 74 0.0 0.0 0.00 0.00 0.00 89 1014.2
20260905111535 51 74 0.0 0.0 0.00 0.00 0.00 89 1014.3
20260905110034 50 344 0.0 0.0 0.00 0.00 0.00 89 1014.4
20260905104543 51 106 0.0 0.0 0.00 0.00 0.00 87 1014.4
20260905103033 51 103 0.0 0.0 0.00 0.00 0.00 85 1014.5
20260905101526 53 162 0.0 0.0 0.00 0.00 0.00 84 1014.4
20260905100023 53 162 0.0 0.0 0.00 0.00 0.00 86 1014.6
20260905094521 54 161 0.0 0.0 0.00 0.00 0.00 84 1014.4
20260905093018 54 186 0.0 0.0 0.00 0.00 0.00 84 1014.4
20260905091515 55 225 0.0 0.0 0.00 0.00 0.00 83 1014.4
20260905090018 55 225 0.0 0.0 0.00 0.00 0.00 83 1014.5
20260905084517 56 112 0.0 0.0 0.00 0.00 0.00 82 1014.6
20260905083012 56 112 0.0 0.0 0.00 0.00 0.00 81 1014.6
20260905081507 56 86 0.0 0.0 0.00 0.00 0.00 82 1014.6
20260905080006 57 77 0.0 0.0 0.00 0.00 0.00 82 1014.6
20260905074501 58 88 0.0 0.0 0.00 0.00 0.00 79 1014.5
20260905073100 59 253 0.0 0.0 0.00 0.00 0.00 80 1014.3
20260905071602 59 244 0.0 0.0 0.00 0.00 0.00 80 1014.1
20260905070054 59 234 0.0 0.0 0.00 0.00 0.00 79 1014.1
20260905064558 60 249 0.0 0.0 0.00 0.00 0.00 79 1014.0
20260905063052 60 232 0.0 0.0 0.00 0.00 0.00 79 1014.1
20260905061608 60 252 0.0 0.0 0.00 0.00 0.00 78 1014.1
20260905060051 61 232 0.0 0.0 0.00 0.00 0.00 74 1014.2
20260905054551 61 263 0.0 0.0 0.00 0.00 0.00 73 1014.1
20260905053054 61 270 0.0 0.0 0.00 0.00 0.00 73 1014.2
20260905051550 61 261 0.0 0.0 0.00 0.00 0.00 72 1014.2
20260905050050 62 259 0.0 0.0 0.00 0.00 0.00 73 1014.3
20260905044550 63 256 0.0 0.0 0.00 0.00 0.00 71 1014.4
20260905043110 64 252 0.0 0.0 0.00 0.00 0.00 69 1014.1
20260905041548 65 275 0.0 0.0 0.00 0.00 0.00 68 1014.1
20260905040112 66 259 0.0 0.0 0.00 0.00 0.00 66 1013.9
20260905034546 67 265 0.0 0.0 0.00 0.00 0.00 64 1013.6
20260905033046 68 269 0.0 0.0 0.00 0.00 0.00 62 1013.5
20260905031546 69 255 0.0 0.0 0.00 0.00 0.00 59 1013.3
20260905030046 70 266 0.0 0.0 0.00 0.00 0.00 55 1013.1
20260905024544 71 257 0.0 0.0 0.00 0.00 0.00 53 1013.0
20260905023047 73 271 0.0 0.0 0.00 0.00 0.00 50 1012.8
20260905021548 75 259 0.0 0.0 0.00 0.00 0.00 44 1012.7
20260905020043 76 261 0.0 0.0 0.00 0.00 0.00 40 1012.7
20260905014543 76 256 0.0 0.0 0.00 0.00 0.00 39 1012.7
20260905013049 77 235 0.0 0.0 0.00 0.00 0.00 38 1012.7
20260905011542 78 250 0.0 0.0 0.00 0.00 0.00 38 1012.6
20260905010049 78 265 0.0 0.0 0.00 0.00 0.00 38 1012.6
20260905004541 78 228 0.0 0.0 0.00 0.00 0.00 39 1012.6
20260905003040 78 242 0.0 0.0 0.00 0.00 0.00 38 1012.5
20260905001539 78 251 0.0 0.0 0.00 0.00 0.00 39 1012.6
20260905000040 78 257 0.0 0.0 0.00 0.00 0.00 38 1012.7
20260904234545 79 253 0.0 0.0 0.00 0.00 0.00 39 1012.8
20260904233038 79 271 0.0 0.0 0.00 0.00 0.00 37 1013.0
20260904231537 79 273 0.0 0.0 0.00 0.00 0.00 38 1013.0
20260904230037 79 303 0.0 0.0 0.00 0.00 0.00 39 1013.1
20260904224541 79 240 0.0 0.0 0.00 0.00 0.00 40 1013.3
20260904223034 78 248 0.0 0.0 0.00 0.00 0.00 40 1013.4
20260904221532 79 244 0.0 0.0 0.00 0.00 0.00 39 1013.4
20260904220133 78 313 0.0 0.0 0.00 0.00 0.00 39 1013.5
20260904214535 78 13 0.0 0.0 0.00 0.00 0.00 37 1013.4
20260904213028 77 270 0.0 0.0 0.00 0.00 0.00 38 1013.5
20260904211532 77 269 0.0 0.0 0.00 0.00 0.00 42 1013.5
20260904210031 76 129 0.0 0.0 0.00 0.00 0.00 42 1013.5
20260904204520 76 306 0.0 0.0 0.00 0.00 0.00 49 1013.6
20260904203031 76 288 0.0 0.0 0.00 0.00 0.00 49 1013.6
20260904201516 76 288 0.0 0.0 0.00 0.00 0.00 49 1013.5
20260904200013 75 242 0.0 0.0 0.00 0.00 0.00 53 1013.6
20260904194509 74 183 0.0 0.0 0.00 0.00 0.00 50 1013.8
20260904193008 72 238 0.0 0.0 0.00 0.00 0.00 55 1014.0
20260904191503 72 236 0.0 0.0 0.00 0.00 0.00 57 1014.2
20260904190002 71 256 0.0 0.0 0.00 0.00 0.00 58 1014.3
20260904184602 71 319 0.0 0.0 0.00 0.00 0.00 60 1014.3
20260904183118 72 271 0.0 0.0 0.00 0.00 0.00 60 1014.3
20260904181558 71 300 0.0 0.0 0.00 0.00 0.00 61 1014.3
20260904180118 71 261 0.0 0.0 0.00 0.00 0.00 62 1014.4
20260904174602 70 273 0.0 0.0 0.00 0.00 0.00 64 1014.4
20260904173047 68 278 0.0 0.0 0.00 0.00 0.00 67 1014.4
20260904171552 68 266 0.0 0.0 0.00 0.00 0.00 68 1014.3
20260904170049 68 231 0.0 0.0 0.00 0.00 0.00 67 1014.2
20260904164540 68 239 0.0 0.0 0.00 0.00 0.00 69 1014.0